EN

Hourly Weather Altadena

Today, 20 January, Wednesday

Time Temperature Precipitation Wind Pressure Humidity
00:00 +13°C° 0 mm 5 mps 724 mmHg 47%
01:00 +12°C° 0 mm 5 mps 724 mmHg 50%
02:00 +12°C° 0 mm 5 mps 725 mmHg 50%
03:00 +12°C° 0 mm 5 mps 725 mmHg 50%
04:00 +12°C° 0 mm 5 mps 725 mmHg 50%
05:00 +12°C° 0 mm 4 mps 725 mmHg 49%
06:00 +12°C° 0 mm 4 mps 725 mmHg 47%
07:00 +11°C° 0 mm 4 mps 726 mmHg 45%
08:00 +13°C° 0 mm 4 mps 726 mmHg 44%
09:00 +14°C° 0 mm 4 mps 726 mmHg 42%
10:00 +15°C° 0 mm 4 mps 727 mmHg 40%
11:00 +17°C° 0 mm 4 mps 726 mmHg 40%
12:00 +18°C° 0 mm 4 mps 726 mmHg 39%
13:00 +19°C° 0 mm 4 mps 725 mmHg 39%
14:00 +19°C° 0 mm 3 mps 725 mmHg 39%
15:00 +19°C° 0 mm 3 mps 725 mmHg 39%
16:00 +19°C° 0 mm 3 mps 725 mmHg 39%
17:00 +18°C° 0 mm 3 mps 725 mmHg 44%
18:00 +17°C° 0 mm 3 mps 725 mmHg 48%
19:00 +16°C° 0 mm 3 mps 725 mmHg 52%
20:00 +14°C° 0 mm 3 mps 725 mmHg 54%
21:00 +14°C° 0 mm 3 mps 726 mmHg 55%
22:00 +14°C° 0 mm 2 mps 726 mmHg 57%
23:00 +14°C° 0 mm 2 mps 725 mmHg 58%

Tomorrow, 21 January, Thursday

Time Temperature Precipitation Wind Pressure Humidity
00:00 +14°C° 0 mm 2 mps 725 mmHg 58%
01:00 +14°C° 0 mm 2 mps 725 mmHg 58%
02:00 +14°C° 0 mm 2 mps 725 mmHg 58%
03:00 +14°C° 0 mm 2 mps 725 mmHg 58%
04:00 +13°C° 0 mm 2 mps 725 mmHg 58%
05:00 +13°C° 0 mm 2 mps 725 mmHg 58%
06:00 +13°C° 0 mm 2 mps 725 mmHg 57%
07:00 +13°C° 0 mm 2 mps 725 mmHg 57%
08:00 +15°C° 0 mm 1 mps 725 mmHg 51%
09:00 +16°C° 0 mm 1 mps 726 mmHg 46%
10:00 +19°C° 0 mm 1 mps 726 mmHg 41%
11:00 +20°C° 0 mm 1 mps 726 mmHg 39%
12:00 +19°C° 0 mm 2 mps 725 mmHg 37%
13:00 +20°C° 0 mm 2 mps 725 mmHg 36%
14:00 +20°C° 0 mm 3 mps 724 mmHg 37%
15:00 +19°C° 0 mm 3 mps 724 mmHg 38%
16:00 +19°C° 0 mm 3 mps 724 mmHg 39%
17:00 +18°C° 0 mm 2 mps 724 mmHg 44%
18:00 +16°C° 0 mm 2 mps 724 mmHg 48%
19:00 +15°C° 0 mm 2 mps 724 mmHg 53%
20:00 +15°C° 0 mm 2 mps 724 mmHg 55%
21:00 +14°C° 0 mm 2 mps 724 mmHg 57%
22:00 +14°C° 0 mm 2 mps 724 mmHg 60%
23:00 +13°C° 0 mm 2 mps 724 mmHg 62%

Day after tomorrow, 22 January, Friday

Time Temperature Precipitation Wind Pressure Humidity
00:00 +13°C° 0 mm 2 mps 724 mmHg 64%
01:00 +12°C° 0 mm 2 mps 724 mmHg 66%
02:00 +12°C° 0 mm 2 mps 723 mmHg 68%
03:00 +12°C° 0 mm 2 mps 723 mmHg 70%
04:00 +11°C° 0 mm 3 mps 723 mmHg 72%
05:00 +11°C° 0 mm 3 mps 723 mmHg 74%
06:00 +10°C° 0 mm 3 mps 723 mmHg 76%
07:00 +10°C° 0 mm 3 mps 723 mmHg 78%
08:00 +11°C° 0 mm 3 mps 723 mmHg 72%
09:00 +12°C° 0 mm 3 mps 723 mmHg 66%
10:00 +13°C° 0 mm 3 mps 723 mmHg 60%
11:00 +13°C° 0 mm 4 mps 723 mmHg 57%
12:00 +14°C° 0 mm 4 mps 722 mmHg 53%
13:00 +14°C° 0 mm 4 mps 722 mmHg 50%
14:00 +13°C° 0 mm 4 mps 721 mmHg 55%
15:00 +13°C° 0 mm 4 mps 721 mmHg 60%
16:00 +12°C° 0 mm 4 mps 721 mmHg 65%
17:00 +12°C° 0.1 mm 3 mps 721 mmHg 70%
18:00 +11°C° 0.1 mm 3 mps 721 mmHg 74%
19:00 +10°C° 0.1 mm 2 mps 721 mmHg 79%
20:00 +10°C° 0.1 mm 2 mps 721 mmHg 79%
21:00 +10°C° 0.1 mm 2 mps 721 mmHg 79%
22:00 +10°C° 0.1 mm 2 mps 722 mmHg 78%
23:00 +10°C° 0.2 mm 2 mps 721 mmHg 79%

23 January, Saturday

Time Temperature Precipitation Wind Pressure Humidity
00:00 +10°C° 0.2 mm 2 mps 721 mmHg 80%
01:00 +10°C° 0.2 mm 2 mps 720 mmHg 81%
02:00 +10°C° 0.3 mm 2 mps 720 mmHg 82%
03:00 +9°C° 0.3 mm 2 mps 720 mmHg 83%
04:00 +10°C° 0.3 mm 1 mps 720 mmHg 84%
05:00 +10°C° 0.1 mm 1 mps 720 mmHg 83%
06:00 +9°C° 0.1 mm 2 mps 720 mmHg 82%
07:00 +9°C° 0.1 mm 2 mps 720 mmHg 81%
08:00 +9°C° 0.2 mm 2 mps 720 mmHg 77%
09:00 +10°C° 0.2 mm 2 mps 721 mmHg 74%
10:00 +10°C° 0.2 mm 2 mps 721 mmHg 70%
11:00 +10°C° 0.4 mm 2 mps 721 mmHg 67%
12:00 +12°C° 0.4 mm 2 mps 720 mmHg 64%
13:00 +11°C° 0.4 mm 3 mps 720 mmHg 60%
14:00 +10°C° 0.7 mm 2 mps 720 mmHg 63%
15:00 +10°C° 0.7 mm 2 mps 720 mmHg 65%
16:00 +10°C° 0.7 mm 2 mps 720 mmHg 67%
17:00 +9°C° 0.6 mm 2 mps 720 mmHg 68%
18:00 +9°C° 0.6 mm 2 mps 721 mmHg 68%
19:00 +9°C° 0.6 mm 2 mps 721 mmHg 69%
20:00 +8°C° 0 mm 2 mps 721 mmHg 68%
21:00 +8°C° 0 mm 2 mps 721 mmHg 68%
22:00 +8°C° 0 mm 2 mps 722 mmHg 68%
23:00 +9°C° 0 mm 1 mps 722 mmHg 68%

24 January, Sunday

Time Temperature Precipitation Wind Pressure Humidity
00:00 +8°C° 0 mm 1 mps 722 mmHg 68%
01:00 +8°C° 0 mm 1 mps 722 mmHg 68%
02:00 +8°C° 0 mm 1 mps 722 mmHg 68%
03:00 +8°C° 0 mm 1 mps 722 mmHg 68%
04:00 +8°C° 0 mm 1 mps 722 mmHg 67%
05:00 +8°C° 0 mm 1 mps 722 mmHg 66%
06:00 +8°C° 0 mm 1 mps 723 mmHg 64%
07:00 +7°C° 0 mm 1 mps 723 mmHg 62%
08:00 +9°C° 0 mm 1 mps 723 mmHg 57%
09:00 +10°C° 0 mm 1 mps 724 mmHg 53%
10:00 +12°C° 0 mm 1 mps 724 mmHg 49%
11:00 +12°C° 0 mm 2 mps 724 mmHg 47%
12:00 +13°C° 0 mm 2 mps 724 mmHg 45%
13:00 +13°C° 0 mm 3 mps 723 mmHg 44%
14:00 +12°C° 0 mm 3 mps 723 mmHg 46%
15:00 +12°C° 0 mm 3 mps 723 mmHg 47%
16:00 +12°C° 0 mm 3 mps 722 mmHg 49%
17:00 +11°C° 0 mm 3 mps 722 mmHg 55%
18:00 +10°C° 0 mm 3 mps 722 mmHg 61%
19:00 +9°C° 0 mm 2 mps 723 mmHg 68%
20:00 +9°C° 0 mm 2 mps 723 mmHg 70%
21:00 +9°C° 0 mm 3 mps 723 mmHg 72%
22:00 +9°C° 0 mm 3 mps 723 mmHg 74%
23:00 +8°C° 0.2 mm 3 mps 722 mmHg 76%

25 January, Monday

Time Temperature Precipitation Wind Pressure Humidity
00:00 +8°C° 0.2 mm 3 mps 722 mmHg 78%
01:00 +8°C° 0.2 mm 3 mps 722 mmHg 80%
02:00 +7°C° 1.1 mm 3 mps 721 mmHg 83%
03:00 +7°C° 1.1 mm 3 mps 721 mmHg 86%
04:00 +5°C° 1.1 mm 3 mps 720 mmHg 89%
05:00 +7°C° 1.1 mm 2 mps 720 mmHg 87%
06:00 +7°C° 1.1 mm 2 mps 720 mmHg 85%
07:00 +7°C° 1.1 mm 2 mps 720 mmHg 83%
08:00 +7°C° 0.3 mm 2 mps 721 mmHg 71%
09:00 +8°C° 0.3 mm 3 mps 721 mmHg 58%
10:00 +7°C° 0.3 mm 4 mps 721 mmHg 45%
11:00 +8°C° 0 mm 5 mps 721 mmHg 42%
12:00 +8°C° 0 mm 6 mps 721 mmHg 40%
13:00 +9°C° 0 mm 6 mps 720 mmHg 37%
14:00 +9°C° 0.1 mm 7 mps 720 mmHg 41%
15:00 +8°C° 0.1 mm 7 mps 720 mmHg 44%
16:00 +7°C° 0.1 mm 8 mps 720 mmHg 48%
17:00 +6°C° 0 mm 7 mps 720 mmHg 53%
18:00 +5°C° 0 mm 6 mps 720 mmHg 59%
19:00 +6°C° 0 mm 5 mps 720 mmHg 64%
20:00 +5°C° 0 mm 4 mps 721 mmHg 68%
21:00 +5°C° 0 mm 4 mps 721 mmHg 72%
22:00 +5°C° 0 mm 3 mps 722 mmHg 77%
23:00 +5°C° 0 mm 3 mps 722 mmHg 76%
Show more